CAPE
0 0 0 0 0 0 0 0 0 0 0 0 0 0 0 0 0 0 0 0 0 0 0 0 0 0 0 0 0 0 0 0 0 0 0 0 0 0 0 0 0 0 0 0
0 0 0 0 0 0 0 0 0 0 0 0 0 0 0 0 0 0 0 0 0 0 0 0 0 0 0 0 0 0 0 0 0 0 0 0 0 0 0 0 0 0 0 0
0 0 0 0 0 0 0 0 0 0 0 0 0 0 0 0 0 0 0 0 0 0 0 0 0 0 0 0 0 0 0 0 0 0 0 0 0 0 0 0 0 0 0 0
0 0 0 0 0 0 0 0 0 0 0 0 0 0 0 0 0 0 0 0 0 0 0 0 0 0 0 0 0 0 0 0 0 0 0 0 0 0 0 0 0 0 0 0
0 0 0 0 0 0 0 0 0 0 0 0 0 0 0 0 0 0 0 0 0 0 0 0 0 0 0 0 0 0 0 0 0 0 0 0 0 0 0 0 0 0 0 0
0 0 0 0 0 0 0 0 0 0 0 0 0 0 0 0 0 0 0 0 0 0 0 0 0 0 0 0 0 0 0 0 0 0 0 0 0 0 0 0 0 0 0 0
0 0 0 0 0 0 0 0 0 0 0 0 0 0 0 0 0 0 0 0 0 0 0 0 0 0 0 0 0 0 0 0 0 0 0 0 0 0 0 0 0 0 0 0
0 0 0 0 0 0 0 0 0 0 0 0 0 0 0 0 0 0 0 0 0 0 0 0 0 0 0 0 0 0 0 0 0 0 0 0 0 0 0 0 0 0 0 0
0 0 0 0 0 0 0 0 0 0 0 0 0 0 0 0 0 0 0 0 0 0 0 0 0 0 0 0 0 0 0 0 0 0 0 0 0 0 0 0 0 0 0 0
0 0 0 0 0 0 0 0 0 0 0 0 0 0 0 0 0 0 0 0 0 0 0 0 0 0 0 0 0 0 0 0 0 0 0 0 0 0 0 0 0 0 0 0
0 0 0 0 0 0 0 0 0 0 1 6 1 4 0 0 0 0 0 0 0 0 0 0 0 0 0 0 0 0 0 0 0 0 0 0 0 0 0 0 0 0 0 0
0 0 0 0 0 0 0 19 0 0 0 0 0 0 0 0 0 0 0 0 0 0 0 0 0 0 0 0 0 0 0 0 0 0 0 0 0 0 0 0 0 0 0 0
0 0 0 0 0 0 0 0 0 0 0 0 0 0 0 0 0 0 1 0 0 0 0 0 0 0 0 0 0 0 0 0 0 0 0 0 0 0 0 0 0 0 0 0
0 0 0 0 0 0 0 0 0 0 1 0 0 0 0 0 0 0 0 0 0 0 0 0 0 0 0 0 0 0 0 0 0 0 0 0 0 0 0 0 0 0 0 0
1 0 0 0 0 0 0 0 0 0 0 0 2 6 0 0 0 0 0 0 0 0 0 0 0 0 0 0 0 0 0 0 0 0 0 0 0 0 0 0 0 0 0 0
12 2 3 0 0 0 0 0 0 0 0 1 11 26 15 0 0 0 0 0 0 0 0 0 0 0 0 0 0 0 0 0 0 0 0 0 0 0 0 0 0 0 0 0
4 2 1 1 0 0 0 0 0 0 0 0 6 0 3 0 0 0 0 0 0 0 0 0 0 0 0 0 0 0 0 0 0 0 0 0 0 0 0 0 0 0 0 0
0 0 2 0 0 0 0 0 0 0 0 0 0 53 1 0 0 0 0 0 0 0 0 0 0 0 0 0 0 0 0 0 0 0 0 0 0 0 0 0 0 0 0 0
0 0 0 0 0 0 0 0 0 0 0 0 0 0 0 0 0 0 0 0 0 0 0 0 0 0 0 0 0 0 0 0 0 0 0 0 0 0 0 0 0 0 0 0
0 0 0 0 0 0 0 0 0 1 0 0 0 0 0 0 2 0 0 0 0 0 0 0 0 0 0 0 0 0 0 0 0 0 0 0 0 0 0 0 0 0 0 0
0 0 0 0 0 0 0 0 0 0 0 0 0 0 0 0 0 0 0 0 0 0 0 0 0 0 2 4 0 0 0 0 0 0 0 0 0 0 0 0 0 0 0 0
0 0 0 0 0 0 0 0 0 0 0 0 0 0 0 0 0 0 0 0 0 0 0 0 0 0 14 1 0 0 0 0 0 0 0 0 0 0 0 0 0 0 0 0
0 0 0 0 0 0 0 0 0 0 0 0 0 0 0 0 0 0 0 0 0 0 0 0 0 13 4 0 0 0 0 0 0 0 0 0 0 0 0 0 0 0 0 0
0 0 0 0 0 0 0 0 0 0 0 0 0 0 0 0 0 0 0 0 0 0 0 0 0 28 0 0 0 0 0 0 0 0 0 0 0 0 0 0 0 0 0 0
0 0 0 0 0 0 0 0 0 0 0 0 0 0 0 0 0 0 0 0 0 0 0 0 0 35 1 0 0 0 0 0 0 0 0 0 0 0 0 0 0 0 0 0
0 0 0 0 0 2 0 0 0 0 0 0 0 0 0 1 0 0 0 0 0 0 0 0 0 10 0 0 0 0 0 0 0 0 0 0 0 0 0 0 0 0 0 0
CIN
-0 -0 -0 -0 -0 -0 -0 -0 -0 -0 -0 -0 -0 -0 -0 -0 -0 -0 -0 -0 -0 -0 -0 -0 -0 -0 -0 -0 -0 -0 -0 -0 -0 -0 -0 -0 -0 -0 -0 -0 -0 -0 -0 -0
-0 -0 -0 -0 -0 -0 -0 -0 -0 -0 -0 -0 -0 -0 -0 -0 -0 -0 -0 -0 -0 -0 -0 -0 -0 -0 -0 -0 -0 -0 -0 -0 -0 -0 -0 -0 -0 -0 -0 -0 -0 -0 -0 -0
-0 -0 -0 -0 -0 -0 -0 -0 -0 -0 -0 -0 -0 -0 -0 -0 -0 -0 -0 -0 -0 -0 -0 -0 -0 -0 -0 -0 -0 -0 -0 -0 -0 -0 -0 -0 -0 -0 -0 -0 -0 -0 -0 -0
-0 -0 -0 -0 -0 -0 -0 -0 -0 -0 -0 -0 -0 -0 -0 -0 -0 -0 -0 -0 -0 -0 -0 -0 -0 -0 -0 -0 -0 -0 -0 -0 -0 -0 -0 -0 -0 -0 -0 -0 -0 -0 -0 -0
-0 -0 -0 -0 -0 -0 -0 -0 -0 -0 -0 -0 -0 -0 -0 -0 -0 -0 -0 -0 -0 -0 -0 -0 -0 -0 -0 -0 -0 -0 -0 -0 -0 -0 -0 -0 -0 -0 -0 -0 -0 -0 -0 -0
-0 -0 -0 -0 -0 -0 -0 -0 -0 -0 -0 -0 -0 -0 -0 -0 -0 -0 -0 -0 -0 -0 -0 -0 -0 -0 -0 -0 -0 -0 -0 -0 -0 -0 -0 -0 -0 -0 -0 -0 -0 -0 -0 -0
-0 -0 -0 -0 -0 -0 -0 -0 -0 -0 -0 -0 -0 -0 -0 -0 -0 -0 -0 -0 -0 -0 -0 -0 -0 -0 -0 -0 -0 -0 -0 -0 -0 -0 -0 -0 -0 -0 -0 -0 -0 -0 -0 -0
-0 -0 -0 -0 -0 -0 -0 -0 -0 -0 -0 -0 -0 -0 -0 -0 -0 -0 -0 -0 -0 -0 -0 -0 -0 -0 -0 -0 -0 -0 -0 -0 -0 -0 -0 -0 -0 -0 -0 -0 -0 -0 -0 -0
-0 -0 -0 -0 -0 -0 -0 -0 -0 -0 -0 -0 -0 -0 -0 -0 -0 -0 -0 -0 -0 -0 -0 -0 -0 -0 -0 -0 -0 -0 -0 -0 -0 -0 -0 -0 -0 -0 -0 -0 -0 -0 -0 -0
-0 -0 -0 -0 -0 -0 -0 -0 -0 -0 -0 -0 -0 -0 -0 -0 -0 -0 -0 -0 -0 -0 -0 -0 -0 -0 -0 -0 -0 -0 -0 -0 -0 -0 -0 -0 -0 -0 -0 -0 -0 -0 -0 -0
-0 -0 -0 -0 -0 -0 -0 -0 -0 -0 -0 -0 -0 -2 -0 -0 -0 -0 -0 -0 -0 -0 -0 -0 -0 -0 -0 -0 -0 -0 -0 -0 -0 -0 -0 -0 -0 -0 -0 -0 -0 -0 -0 -0
-0 -0 -0 -0 -0 -0 -0 -3 -0 -0 -0 -0 -0 -0 -0 -0 -0 -0 -0 -0 -0 -0 -0 -0 -0 -0 -0 -0 -0 -0 -0 -0 -0 -0 -0 -0 -0 -0 -0 -0 -0 -0 -0 -0
-0 -0 -0 -0 -0 -0 -0 -0 -0 -0 -0 -0 -0 -0 -0 -0 -0 -0 -0 -0 -0 -0 -0 -0 -0 -0 -0 -0 -0 -0 -0 -0 -0 -0 -0 -0 -0 -0 -0 -0 -0 -0 -0 -0
-0 -0 -0 -0 -0 -0 -0 -0 -0 -0 -2 -0 -0 -0 -0 -0 -0 -0 -0 -0 -0 -0 -0 -0 -0 -0 -0 -0 -0 -0 -0 -0 -0 -0 -0 -0 -0 -0 -0 -0 -0 -0 -0 -0
-4 -0 -0 -0 -0 -0 -0 -0 -0 -0 -0 -0 -41 -39 -0 -0 -0 -0 -0 -0 -4 -0 -0 -0 -0 -0 -0 -0 -0 -0 -0 -0 -0 -0 -0 -0 -0 -0 -0 -0 -0 -0 -0 -0
-1 -0 -0 -0 -0 -0 -0 -0 -0 -0 -0 -59 -23 -4 -16 -0 -0 -0 -0 -0 -0 -0 -0 -0 -0 -0 -0 -0 -0 -0 -0 -0 -0 -0 -0 -0 -0 -0 -0 -0 -0 -0 -0 -0
-0 -0 -0 -2 -0 -0 -0 -0 -0 -0 -0 -0 -9 -0 -43 -0 -0 -0 -0 -0 -0 -0 -0 -0 -0 -0 -0 -0 -0 -0 -0 -0 -0 -0 -0 -0 -0 -0 -0 -0 -0 -0 -0 -0
-0 -0 -0 -0 -0 -0 -0 -0 -0 -0 -0 -0 -15 -22 -1 -0 -0 -0 -0 -0 -0 -0 -0 -0 -0 -0 -0 -0 -0 -0 -0 -0 -0 -0 -0 -0 -0 -0 -0 -0 -0 -0 -0 -0
-0 -0 -0 -0 -0 -0 -0 -0 -0 -0 -0 -0 -2 -0 -0 -0 -0 -0 -0 -0 -0 -0 -0 -0 -0 -0 -0 -0 -0 -0 -0 -0 -0 -0 -0 -0 -0 -0 -0 -0 -0 -0 -0 -0
-0 -0 -0 -0 -0 -0 -0 -0 -0 -30 -0 -0 -0 -0 -0 -0 -0 -0 -0 -0 -0 -0 -0 -0 -0 -0 -0 -1 -0 -0 -0 -0 -0 -0 -0 -0 -0 -0 -0 -0 -0 -0 -0 -0
-0 -0 -0 -0 -0 -0 -0 -0 -0 -0 -0 -0 -0 -0 -0 -0 -0 -0 -0 -0 -0 -0 -0 -0 -0 -0 -7 -8 -0 -0 -0 -0 -0 -0 -0 -0 -0 -0 -0 -0 -0 -0 -0 -0
-0 -0 -0 -0 -0 -0 -0 -0 -0 -0 -0 -0 -0 -0 -0 -0 -0 -0 -0 -0 -0 -0 -0 -0 -0 -0 -6 -3 -0 -0 -0 -0 -0 -0 -0 -0 -0 -0 -0 -0 -0 -0 -0 -0
-0 -0 -0 -0 -0 -0 -0 -0 -0 -0 -0 -0 -0 -0 -0 -0 -0 -0 -0 -0 -0 -0 -0 -0 -0 -0 -18 -1 -0 -0 -0 -0 -0 -0 -0 -0 -0 -0 -0 -0 -0 -0 -0 -0
-0 -0 -0 -0 -0 -0 -0 -0 -0 -0 -0 -0 -0 -0 -0 -0 -0 -0 -0 -0 -0 -0 -0 -0 -0 -0 -0 -0 -0 -0 -0 -0 -0 -0 -0 -0 -0 -0 -0 -0 -0 -0 -0 -0
-0 -0 -0 -0 -0 -0 -0 -0 -0 -0 -0 -0 -0 -0 -0 -0 -0 -0 -0 -0 -0 -0 -0 -0 -0 -2 -0 -0 -0 -0 -0 -0 -0 -0 -0 -0 -0 -0 -0 -0 -0 -0 -0 -0
-0 -0 -0 -0 -0 -2 -0 -0 -0 -0 -0 -0 -0 -0 -0 -0 -0 -0 -0 -0 -0 -0 -0 -0 -0 -0 -0 -0 -0 -0 -0 -0 -0 -0 -0 -0 -0 -0 -0 -0 -0 -0 -0 -0
Wind_Speed
21 23 21 19 19 24 29 33 40 42 40 45 48 59 48 53 41 40 42 42 39 34 28 29 25 23 23 23 22 23 23 22 21 20 19 20 20 19 18 16 14 13 12 11
23 18 21 21 22 25 29 37 42 44 38 36 49 62 51 40 38 37 35 35 34 34 36 35 30 27 25 25 25 25 25 24 24 23 22 23 21 21 19 17 15 15 13 11
20 25 23 22 26 29 31 34 40 45 46 41 49 64 48 39 31 32 33 30 32 33 35 34 31 29 28 28 27 27 27 27 27 25 23 24 21 22 21 19 18 16 13 12
21 19 22 24 28 28 39 29 32 39 42 47 37 64 49 49 48 39 36 35 34 37 36 35 33 29 26 26 28 29 28 28 28 27 26 26 24 23 22 21 19 16 14 13
25 29 30 30 28 24 34 32 32 34 38 46 42 42 64 39 51 49 42 41 36 30 36 37 35 32 27 26 26 27 28 29 29 29 29 28 26 24 23 22 19 16 15 14
21 24 26 27 29 26 31 36 36 36 36 49 42 38 68 49 37 36 40 38 35 37 38 39 40 39 37 30 26 25 26 28 29 29 29 30 27 25 24 21 19 18 16 15
34 29 23 25 29 29 28 37 44 45 41 49 38 39 48 39 52 44 43 44 45 45 45 44 43 44 43 35 28 25 26 28 28 29 30 29 27 25 23 21 19 18 16 15
37 35 28 28 34 36 38 33 39 52 56 60 51 54 51 40 45 46 47 47 46 45 44 46 44 43 43 41 32 26 25 26 26 27 28 27 26 25 23 21 18 17 16 14
38 34 28 37 35 33 36 38 37 48 55 61 60 57 57 54 49 46 47 47 49 46 46 45 44 44 45 41 33 25 23 22 21 23 25 27 27 25 23 21 18 16 15 14
32 48 34 32 34 31 37 38 50 44 63 72 66 68 65 59 56 57 59 60 58 53 52 50 47 47 44 41 33 25 22 23 23 22 23 25 26 25 23 20 18 16 14 13
36 34 39 45 43 48 48 46 42 47 49 66 76 66 41 56 56 61 66 62 59 56 52 51 48 45 42 40 35 28 25 23 23 25 24 24 24 24 22 20 17 15 14 12
33 37 49 51 43 36 35 37 41 51 60 59 61 72 58 55 66 72 69 62 61 56 54 50 45 41 42 40 37 33 29 28 25 23 24 26 25 24 23 20 18 16 14 12
37 37 56 52 33 34 49 54 55 54 53 63 71 70 62 71 65 60 61 62 58 58 58 49 45 43 44 42 40 38 35 32 29 25 25 26 27 26 24 21 18 16 14 12
34 35 38 49 54 58 63 58 55 52 58 61 61 64 60 60 60 54 53 53 53 52 52 53 54 52 49 45 42 40 38 35 31 29 28 27 28 27 25 21 19 16 14 13
31 40 44 47 50 52 54 56 53 51 50 53 57 53 50 49 49 49 48 50 50 50 51 50 51 49 46 45 44 41 40 37 31 29 30 30 29 28 26 23 20 17 14 13
33 45 47 53 48 48 53 47 44 42 43 44 42 45 40 40 43 44 48 50 51 50 49 50 52 53 49 47 46 46 43 39 35 31 32 30 29 27 26 24 21 18 15 13
39 42 45 54 45 48 48 38 38 45 37 39 43 48 39 46 52 52 52 51 49 48 49 51 52 51 50 49 48 49 47 43 40 38 33 31 29 27 26 24 21 18 15 14
35 38 38 47 45 49 36 35 38 33 30 37 39 34 40 47 54 52 48 45 46 50 51 52 51 51 49 49 49 51 49 46 45 43 37 33 31 29 26 24 21 19 16 14
22 31 38 42 45 43 38 31 36 38 33 34 31 44 52 52 53 51 40 43 52 52 50 49 50 50 49 49 49 49 49 48 47 46 41 35 32 29 27 25 22 19 16 14
28 25 32 39 46 44 33 33 29 29 35 22 47 51 51 51 53 55 51 51 52 50 50 49 49 49 46 48 49 50 48 49 49 43 40 35 32 30 28 25 21 18 16 14
38 36 39 39 37 32 24 22 28 33 33 38 42 45 45 47 40 34 53 52 51 48 50 51 50 49 48 48 51 51 50 51 48 41 33 30 30 29 27 24 20 17 15 13
40 38 37 30 32 35 18 30 34 33 29 31 29 29 37 40 42 51 52 50 50 49 50 50 50 48 47 49 50 51 50 47 45 37 32 28 27 26 25 23 19 17 15 13
35 24 32 24 26 28 31 36 33 34 34 36 36 35 36 40 48 49 54 52 50 50 49 49 50 48 49 48 48 49 46 42 36 31 31 25 24 24 23 22 19 16 14 12
29 21 25 28 25 26 34 37 31 33 35 36 33 34 32 37 42 51 51 50 51 51 50 50 49 48 48 49 47 44 38 33 33 29 28 23 22 22 21 19 17 15 13 11
30 26 25 26 26 35 34 29 35 40 37 38 35 32 30 29 23 30 36 45 49 51 50 48 47 45 45 45 41 34 28 23 27 28 23 24 20 21 19 16 14 12 10 9
23 22 24 26 26 28 31 39 36 37 39 39 40 39 27 29 30 39 44 40 37 50 48 46 43 42 38 39 33 26 21 18 20 24 19 20 17 16 15 13 11 10 8 9
Wind_Direction
327 321 318 319 315 313 311 307 302 301 304 300 296 281 296 285 297 297 295 294 294 294 293 293 286 275 269 264 258 250 246 243 244 249 252 260 260 264 268 270 274 282 292 303
328 325 327 325 322 316 312 306 304 305 311 307 300 274 297 299 285 297 297 296 293 294 295 293 286 279 268 260 255 251 245 243 241 247 252 264 261 267 267 267 271 277 283 292
329 328 334 329 323 317 313 311 308 305 307 308 304 285 300 305 304 305 304 301 301 300 300 299 294 283 275 266 257 251 246 242 240 244 252 265 264 273 267 265 268 271 277 285
337 343 336 330 324 321 309 319 314 311 309 303 314 293 297 303 304 307 306 304 302 303 304 305 301 293 284 271 263 254 248 243 240 239 243 243 248 254 259 262 265 267 271 279
330 326 326 324 325 329 319 324 319 316 311 307 306 303 291 312 304 306 308 307 306 307 312 310 309 306 298 282 272 262 254 247 242 239 239 240 247 254 263 264 261 263 269 275
329 334 331 327 328 325 323 321 319 316 310 301 304 301 282 308 312 319 319 319 320 316 315 314 312 308 301 295 283 271 256 247 241 237 236 235 240 249 257 258 258 262 268 272
327 331 339 342 333 337 333 326 316 311 308 303 312 300 295 306 307 314 316 316 314 315 315 316 314 311 303 297 289 275 262 253 243 238 234 233 237 242 245 249 254 257 262 268
325 323 335 339 334 326 324 322 315 308 305 302 303 296 298 308 310 312 313 315 316 316 315 313 312 313 311 301 292 281 272 259 247 243 234 231 233 239 245 247 252 255 257 261
325 323 334 328 334 334 328 321 322 310 305 301 299 298 300 302 305 311 312 314 315 315 317 315 314 314 312 310 299 286 276 263 247 240 235 233 233 236 241 245 250 253 256 262
331 318 326 334 337 334 329 326 317 313 304 300 299 297 297 302 304 306 306 307 308 307 307 309 312 311 311 311 306 294 279 268 259 248 238 233 232 234 238 241 244 248 254 257
332 324 321 324 325 322 320 319 317 312 305 301 299 297 309 308 306 305 304 307 307 305 305 305 305 306 305 308 308 298 284 273 263 256 250 238 232 232 235 237 240 244 248 249
334 326 319 319 322 321 323 327 329 320 311 306 302 296 303 303 304 304 301 305 303 303 303 303 303 302 302 303 304 297 288 277 267 257 251 245 236 230 231 235 237 240 243 246
334 329 323 325 336 332 324 318 316 314 310 304 301 301 307 303 303 305 303 303 302 301 297 300 300 296 298 299 297 293 285 279 270 261 251 246 240 232 231 233 234 238 241 245
328 322 316 314 314 317 315 316 317 313 308 307 303 306 313 312 308 309 308 306 303 301 299 294 293 293 296 292 290 290 286 279 274 263 253 246 240 236 234 232 233 235 239 246
329 319 317 315 317 317 315 317 316 314 311 307 308 308 313 318 318 316 312 308 304 300 299 296 295 293 294 286 285 287 284 279 276 268 255 249 243 239 236 234 234 235 240 246
325 320 321 318 321 320 319 319 318 318 317 316 315 315 324 321 323 323 320 314 309 304 301 300 296 292 290 286 284 281 283 284 274 270 258 249 243 238 234 233 232 233 239 245
323 323 324 321 325 326 325 328 327 322 324 325 318 318 324 313 309 308 313 312 312 310 307 305 299 292 291 289 285 282 282 282 271 266 260 249 242 237 232 230 229 228 231 241
327 326 328 326 330 327 331 330 328 327 328 327 323 327 324 318 302 308 316 315 315 309 301 299 302 298 296 293 288 281 278 279 268 262 258 249 240 236 230 225 224 227 230 236
332 334 331 330 329 326 330 338 336 332 331 336 334 322 315 316 316 306 322 322 314 311 299 295 295 300 297 290 291 285 278 275 268 258 255 248 237 232 226 222 221 223 228 236
349 339 333 331 328 328 328 335 342 345 330 353 330 322 319 320 315 298 312 314 314 314 311 298 298 308 304 298 295 288 281 270 262 259 254 248 237 229 224 221 219 224 227 235
339 335 327 328 328 329 335 342 342 333 333 336 334 326 326 323 326 294 313 310 313 316 308 310 305 307 307 303 299 286 279 266 260 255 253 244 233 227 224 221 219 220 226 235
333 334 334 337 335 332 349 335 335 329 323 332 331 332 330 327 326 315 313 316 314 315 310 313 311 311 314 306 300 286 276 267 253 247 244 237 230 226 222 214 216 218 222 230
337 334 331 329 325 324 320 322 326 329 329 333 334 334 332 327 320 321 312 313 315 314 315 316 314 310 311 316 305 287 274 265 248 244 236 231 227 224 218 210 211 218 223 231
338 334 324 327 316 319 323 322 328 332 331 333 334 336 335 331 327 320 319 318 316 312 312 313 310 309 312 321 305 296 283 261 243 237 231 226 221 217 213 213 211 214 223 234
323 329 321 314 316 326 327 329 326 327 330 333 334 334 336 336 320 335 331 325 316 309 309 310 305 303 317 316 306 298 285 259 238 231 227 223 213 212 208 210 210 215 229 232
331 330 330 327 330 330 327 325 327 328 330 332 334 289 330 336 332 334 328 329 330 308 304 304 303 302 313 319 311 303 279 256 239 227 220 213 196 192 196 201 223 247 242 260